FW0960 Weather Reports


time (UTC)temp
F
wind
direction
speed
knots
gust
knots
rain 1hr
in
rain 24hr
in
rain mn
in
humidity
%
barometer
mb
20260504221424 71 355 0.9 1.7 0.00 0.00 0.00 58 1012.2
20260504220917 73 351 0.9 1.7 0.00 0.00 0.00 55 1012.2
20260504220418 74 351 0.9 2.6 0.00 0.00 0.00 51 1012.2
20260504215915 75 49 0.9 3.5 0.00 0.00 0.00 44 1012.2
20260504215422 75 161 0.0 3.5 0.00 0.00 0.00 42 1012.2
20260504214914 74 173 0.0 1.7 0.00 0.00 0.00 40 1012.3
20260504213918 74 117 0.9 1.7 0.00 0.00 0.00 41 1012.2
20260504213414 74 154 0.9 3.5 0.00 0.00 0.00 42 1012.3
20260504212912 74 208 0.9 3.5 0.00 0.00 0.00 39 1012.3
20260504212415 74 141 0.9 1.7 0.00 0.00 0.00 40 1012.4
20260504211913 74 108 0.9 1.7 0.00 0.00 0.00 38 1012.3
20260504211413 74 142 0.9 1.7 0.00 0.00 0.00 38 1012.2
20260504210913 74 157 0.9 3.5 0.00 0.00 0.00 39 1012.4
20260504210410 74 152 0.9 3.5 0.00 0.00 0.00 40 1012.2
20260504205407 74 169 0.9 1.7 0.00 0.00 0.00 40 1012.3
20260504204905 75 121 0.9 3.5 0.00 0.00 0.00 41 1012.4
20260504204408 75 42 0.9 3.5 0.00 0.00 0.00 39 1012.5
20260504203902 75 167 0.9 3.5 0.00 0.00 0.00 43 1012.6
20260504202904 75 92 0.9 2.6 0.00 0.00 0.00 41 1012.4
20260504201901 74 102 0.0 3.5 0.00 0.00 0.00 41 1012.6
20260504201405 75 86 0.0 1.7 0.00 0.00 0.00 40 1012.5
20260504200906 74 88 0.0 1.7 0.00 0.00 0.00 39 1012.7
20260504195901 74 105 0.9 4.3 0.00 0.00 0.00 40 1012.6
20260504195402 74 167 0.9 4.3 0.00 0.00 0.00 41 1012.7
20260504194906 74 169 0.9 4.3 0.00 0.00 0.00 41 1012.8
20260504194408 74 107 0.9 3.5 0.00 0.00 0.00 43 1012.8
20260504193903 74 145 0.9 2.6 0.00 0.00 0.00 40 1012.7
20260504193406 74 121 0.9 2.6 0.00 0.00 0.00 40 1012.8
20260504192905 74 88 0.9 4.3 0.00 0.00 0.00 39 1012.9
20260504192403 74 82 0.9 4.3 0.00 0.00 0.00 40 1012.9
20260504191904 74 144 0.9 2.6 0.00 0.00 0.00 40 1013.0
20260504191402 74 123 0.9 3.5 0.00 0.00 0.00 40 1012.9
20260504190404 73 128 0.9 3.5 0.00 0.00 0.00 37 1013.1
20260504185902 74 140 0.9 2.6 0.00 0.00 0.00 40 1013.1
20260504185402 73 168 0.9 4.3 0.00 0.00 0.00 43 1013.3
20260504184358 73 128 0.9 4.3 0.00 0.00 0.00 39 1013.3
20260504183857 73 173 0.0 2.6 0.00 0.00 0.00 42 1013.2
20260504183358 73 153 0.0 3.5 0.00 0.00 0.00 42 1013.3
20260504182405 72 109 0.9 1.7 0.00 0.00 0.00 40 1013.5
20260504181902 72 155 0.9 1.7 0.00 0.00 0.00 44 1013.6
20260504181358 72 214 0.9 5.2 0.00 0.00 0.00 42 1013.6
20260504175855 72 129 0.0 2.6 0.00 0.00 0.00 39 1013.7
20260504175359 72 151 0.9 5.2 0.00 0.00 0.00 39 1013.9
20260504174902 71 166 0.9 5.2 0.00 0.00 0.00 42 1013.9
20260504174400 71 178 0.0 2.6 0.00 0.00 0.00 40 1014.0
20260504173900 71 115 0.9 2.6 0.00 0.00 0.00 39 1014.0
20260504173355 71 163 0.9 3.5 0.00 0.00 0.00 40 1014.2
20260504172852 71 96 0.9 4.3 0.00 0.00 0.00 43 1014.2
20260504172352 71 180 0.9 4.3 0.00 0.00 0.00 42 1014.2
20260504171859 71 169 0.9 4.3 0.00 0.00 0.00 46 1014.3
20260504170855 71 159 0.9 3.5 0.00 0.00 0.00 43 1014.5
20260504170354 71 178 0.9 3.5 0.00 0.00 0.00 42 1014.4
20260504160347 69 138 0.9 2.6 0.00 0.00 0.00 46 1014.8
20260504150834 67 355 0.0 1.7 0.00 0.00 0.00 53 1015.3
20260504141325 63 182 0.0 0.9 0.00 0.00 0.00 63 1015.6
20260504140320 63 135 0.0 1.7 0.00 0.00 0.00 62 1016.0
20260504130809 60 144 0.0 0.9 0.00 0.00 0.00 69 1016.5
20260504130307 59 155 0.0 0.9 0.00 0.00 0.00 69 1016.4
20260504120301 54 140 0.0 0.9 0.00 0.00 0.00 79 1016.9
20260504100236 52 140 0.0 0.0 0.00 0.00 0.00 82 1017.2
20260504081706 51 144 0.0 1.7 0.00 0.00 0.00 80 1017.5
20260504081206 51 140 0.0 1.7 0.00 0.00 0.00 80 1017.5
20260504080705 51 166 0.0 0.9 0.00 0.00 0.00 80 1017.5
20260504080207 51 171 0.0 0.9 0.00 0.00 0.00 80 1017.6
20260504070154 50 181 0.0 3.5 0.00 0.00 0.00 74 1017.6
20260504060147 49 165 0.0 0.9 0.00 0.00 0.00 69 1017.4
20260504050646 49 163 0.0 0.9 0.00 0.00 0.00 69 1017.5
20260504050140 48 163 0.0 0.9 0.00 0.00 0.00 68 1017.4
20260504045640 48 163 0.0 0.0 0.00 0.00 0.00 68 1017.5
20260504045136 48 163 0.0 0.0 0.00 0.00 0.00 68 1017.3
20260504044637 48 163 0.0 0.0 0.00 0.00 0.00 68 1017.2
20260504044133 48 163 0.0 0.0 0.00 0.00 0.00 68 1017.3
20260504043633 48 163 0.0 0.0 0.00 0.00 0.00 68 1017.2
20260504043131 48 163 0.0 0.0 0.00 0.00 0.00 68 1017.2
20260504042133 48 163 0.0 0.0 0.00 0.00 0.00 68 1017.0
20260504041634 48 163 0.0 0.0 0.00 0.00 0.00 68 1017.0
20260504041136 48 163 0.0 0.0 0.00 0.00 0.00 68 1016.9
20260504040632 48 163 0.0 0.0 0.00 0.00 0.00 68 1016.8
20260504040130 47 163 0.0 0.0 0.00 0.00 0.00 68 1016.8
20260504035628 47 163 0.0 0.0 0.00 0.00 0.00 69 1016.7
20260504035119 47 163 0.0 0.0 0.00 0.00 0.00 69 1016.7
20260504034621 48 163 0.0 0.0 0.00 0.00 0.00 70 1016.7
20260504034125 48 163 0.0 0.0 0.00 0.00 0.00 69 1016.7
20260504033117 48 163 0.0 0.0 0.00 0.00 0.00 68 1016.6
20260504032617 48 163 0.0 0.0 0.00 0.00 0.00 69 1016.8
20260504032110 48 163 0.0 0.0 0.00 0.00 0.00 70 1016.7
20260504031609 48 163 0.0 0.0 0.00 0.00 0.00 72 1016.7
20260504031107 48 163 0.0 0.0 0.00 0.00 0.00 71 1016.7
20260504030610 48 163 0.0 0.0 0.00 0.00 0.00 69 1016.7
20260504030134 48 163 0.0 0.0 0.00 0.00 0.00 69 1016.7
20260504025110 49 163 0.0 0.0 0.00 0.00 0.00 68 1016.7
20260504024605 49 163 0.0 0.0 0.00 0.00 0.00 68 1016.8
20260504024101 49 163 0.0 0.0 0.00 0.00 0.00 69 1016.8
20260504022604 49 163 0.0 0.0 0.00 0.00 0.00 65 1016.7
20260504022105 49 163 0.0 0.0 0.00 0.00 0.00 64 1016.7
20260504021105 50 163 0.0 0.0 0.00 0.00 0.00 66 1016.7
20260504020603 50 163 0.0 0.0 0.00 0.00 0.00 65 1016.7
20260504020050 50 163 0.0 0.0 0.00 0.00 0.00 63 1016.7
20260504015549 50 163 0.0 0.0 0.00 0.00 0.00 65 1016.6
20260504014537 50 163 0.0 0.0 0.00 0.00 0.00 65 1016.6
20260504013535 50 163 0.0 0.0 0.00 0.00 0.00 63 1016.5
20260504013031 51 163 0.0 0.0 0.00 0.00 0.00 63 1016.4
20260504012553 51 163 0.0 0.0 0.00 0.00 0.00 63 1016.4
20260504011521 51 163 0.0 0.0 0.00 0.00 0.00 59 1016.3
20260504010527 52 163 0.0 0.0 0.00 0.00 0.00 60 1016.2
20260504010024 52 163 0.0 0.0 0.00 0.00 0.00 59 1016.2
20260504005519 52 163 0.0 0.0 0.00 0.00 0.00 58 1016.1
20260504005017 53 163 0.0 0.0 0.00 0.00 0.00 58 1016.2
20260504004515 53 163 0.0 0.0 0.00 0.00 0.00 56 1016.1
20260504004025 54 163 0.0 0.0 0.00 0.00 0.00 54 1016.0
20260504003512 54 163 0.0 0.0 0.00 0.00 0.00 54 1016.0
20260504002513 55 163 0.0 0.0 0.00 0.00 0.00 52 1015.7
20260504002011 55 163 0.0 0.0 0.00 0.00 0.00 50 1015.7
20260504001510 55 163 0.0 0.0 0.00 0.00 0.00 50 1015.6
20260504001006 56 163 0.0 0.0 0.00 0.00 0.00 49 1015.4
20260504000513 56 163 0.0 0.0 0.00 0.00 0.00 49 1015.5
20260503235503 57 163 0.0 0.0 0.00 0.00 0.00 48 1015.5
20260503235020 57 163 0.0 0.9 0.00 0.00 0.00 46 1015.4
20260503234010 58 163 0.0 0.9 0.00 0.00 0.00 45 1015.4
20260503233507 58 163 0.0 0.9 0.00 0.00 0.00 45 1015.3
20260503233008 58 163 0.0 0.9 0.00 0.00 0.00 44 1015.3
20260503232010 58 213 0.0 1.7 0.00 0.00 0.00 44 1015.4
20260503231505 58 207 0.0 1.7 0.00 0.00 0.00 43 1015.3
20260503231007 58 168 0.0 0.9 0.00 0.00 0.00 45 1015.2
20260503230503 58 200 0.9 2.6 0.00 0.00 0.00 43 1015.1
20260503230003 58 202 0.9 3.5 0.00 0.00 0.00 44 1015.1
20260503225507 58 113 0.9 3.5 0.00 0.00 0.00 41 1015.0
20260503225003 58 196 0.9 5.2 0.00 0.00 0.00 43 1015.2
20260503224503 59 153 0.9 5.2 0.00 0.00 0.00 41 1015.2
20260503223505 59 216 0.9 4.3 0.00 0.00 0.00 41 1015.2
20260503223010 59 136 0.9 4.3 0.00 0.00 0.00 41 1015.1
20260503222502 59 157 0.9 4.3 0.00 0.00 0.00 43 1015.0